Year,Month,Day,Hour,Minute,Value (Times are PST for temperature in C)
2012,04,07,00,00,1.70
2012,04,07,00,01,1.70
2012,04,07,00,02,1.70
2012,04,07,00,03,1.60
2012,04,07,00,04,1.60
2012,04,07,00,05,1.60
2012,04,07,00,06,1.60
2012,04,07,00,07,1.60
2012,04,07,00,08,1.60
2012,04,07,00,09,1.60
2012,04,07,00,10,1.50
2012,04,07,00,11,1.50
2012,04,07,00,12,1.50
2012,04,07,00,13,1.40
2012,04,07,00,14,1.40
2012,04,07,00,15,1.40
2012,04,07,00,16,1.40
2012,04,07,00,17,1.40
2012,04,07,00,18,1.40
2012,04,07,00,19,1.40
2012,04,07,00,20,1.30
2012,04,07,00,21,1.30
2012,04,07,00,22,1.30
2012,04,07,00,23,1.30
2012,04,07,00,24,1.30
2012,04,07,00,25,1.30
2012,04,07,00,26,1.30
2012,04,07,00,27,1.30
2012,04,07,00,28,1.30
2012,04,07,00,29,1.30
2012,04,07,00,30,1.30
2012,04,07,00,31,1.30
2012,04,07,00,32,1.30
2012,04,07,00,33,1.30
2012,04,07,00,34,1.30
2012,04,07,00,35,1.30
2012,04,07,00,36,1.30
2012,04,07,00,37,1.30
2012,04,07,00,38,1.30
2012,04,07,00,39,1.30
2012,04,07,00,40,1.30
2012,04,07,00,41,1.30
2012,04,07,00,42,1.30
2012,04,07,00,43,1.20
2012,04,07,00,44,1.20
2012,04,07,00,45,1.20
2012,04,07,00,46,1.20
2012,04,07,00,47,1.10
2012,04,07,00,48,1.10
2012,04,07,00,49,1.10
2012,04,07,00,50,1.10
2012,04,07,00,51,1.10
2012,04,07,00,52,1.10
2012,04,07,00,53,1.10
2012,04,07,00,54,1.10
2012,04,07,00,55,1.10
2012,04,07,00,56,1.10
2012,04,07,00,57,1.10
2012,04,07,00,58,1.10
2012,04,07,00,59,1.10
2012,04,07,01,00,1.10
2012,04,07,01,01,1.10
2012,04,07,01,02,1.10
2012,04,07,01,03,1.10
2012,04,07,01,04,1.10
2012,04,07,01,05,1.10
2012,04,07,01,06,1.10
2012,04,07,01,07,1.10
2012,04,07,01,08,1.10
2012,04,07,01,09,1.10
2012,04,07,01,10,1.10
2012,04,07,01,11,1.10
2012,04,07,01,12,1.10
2012,04,07,01,13,1.10
2012,04,07,01,14,1.10
2012,04,07,01,15,1.00
2012,04,07,01,16,1.00
2012,04,07,01,17,1.00
2012,04,07,01,18,1.00
2012,04,07,01,19,1.00
2012,04,07,01,20,1.00
2012,04,07,01,21,1.00
2012,04,07,01,22,0.90
2012,04,07,01,23,0.90
2012,04,07,01,24,0.90
2012,04,07,01,25,0.90
2012,04,07,01,26,0.90
2012,04,07,01,27,0.90
2012,04,07,01,28,0.80
2012,04,07,01,29,0.80
2012,04,07,01,30,0.80
2012,04,07,01,31,0.90
2012,04,07,01,32,0.90
2012,04,07,01,33,0.90
2012,04,07,01,34,0.90
2012,04,07,01,35,0.90
2012,04,07,01,36,0.90
2012,04,07,01,37,0.90
2012,04,07,01,38,0.90
2012,04,07,01,39,0.90
2012,04,07,01,40,0.90
2012,04,07,01,41,0.80
2012,04,07,01,42,0.80
2012,04,07,01,43,0.80
2012,04,07,01,44,0.80
2012,04,07,01,45,0.80
2012,04,07,01,46,0.80
2012,04,07,01,47,0.80
2012,04,07,01,48,0.80
2012,04,07,01,49,0.80
2012,04,07,01,50,0.80
2012,04,07,01,51,0.80
2012,04,07,01,52,0.80
2012,04,07,01,53,0.80
2012,04,07,01,54,0.80
2012,04,07,01,55,0.80
2012,04,07,01,56,0.70
2012,04,07,01,57,0.70
2012,04,07,01,58,0.70
2012,04,07,01,59,0.60
2012,04,07,02,00,0.60
2012,04,07,02,01,0.60
2012,04,07,02,02,0.60
2012,04,07,02,03,0.60
2012,04,07,02,04,0.60
2012,04,07,02,05,0.50
2012,04,07,02,06,0.50
2012,04,07,02,07,0.50
2012,04,07,02,08,0.60
2012,04,07,02,09,0.60
2012,04,07,02,10,0.60
2012,04,07,02,11,0.60
2012,04,07,02,12,0.60
2012,04,07,02,13,0.60
2012,04,07,02,14,0.60
2012,04,07,02,15,0.50
2012,04,07,02,16,0.50
2012,04,07,02,17,0.50
2012,04,07,02,18,0.60
2012,04,07,02,19,0.60
2012,04,07,02,20,0.60
2012,04,07,02,21,0.60
2012,04,07,02,22,0.60
2012,04,07,02,23,0.60
2012,04,07,02,24,0.60
2012,04,07,02,25,0.70
2012,04,07,02,26,0.70
2012,04,07,02,27,0.70
2012,04,07,02,28,0.70
2012,04,07,02,29,0.70
2012,04,07,02,30,0.70
2012,04,07,02,31,0.70
2012,04,07,02,32,0.60
2012,04,07,02,33,0.60
2012,04,07,02,34,0.60
2012,04,07,02,35,0.50
2012,04,07,02,36,0.50
2012,04,07,02,37,0.50
2012,04,07,02,38,0.50
2012,04,07,02,39,0.50
2012,04,07,02,40,0.40
2012,04,07,02,41,0.40
2012,04,07,02,42,0.40
2012,04,07,02,43,0.40
2012,04,07,02,44,0.40
2012,04,07,02,45,0.40
2012,04,07,02,46,0.40
2012,04,07,02,47,0.50
2012,04,07,02,48,0.50
2012,04,07,02,49,0.50
2012,04,07,02,50,0.50
2012,04,07,02,51,0.50
2012,04,07,02,52,0.50
2012,04,07,02,53,0.50
2012,04,07,02,54,0.50
2012,04,07,02,55,0.50
2012,04,07,02,56,0.50
2012,04,07,02,57,0.50
2012,04,07,02,58,0.50
2012,04,07,02,59,0.50
2012,04,07,03,00,0.50
2012,04,07,03,01,0.50
2012,04,07,03,02,0.50
2012,04,07,03,03,0.50
2012,04,07,03,04,0.60
2012,04,07,03,05,0.60
2012,04,07,03,06,0.60
2012,04,07,03,07,0.60
2012,04,07,03,08,0.60
2012,04,07,03,09,0.60
2012,04,07,03,10,0.60
2012,04,07,03,11,0.60
2012,04,07,03,12,0.60
2012,04,07,03,13,0.60
2012,04,07,03,14,0.60
2012,04,07,03,15,0.60
2012,04,07,03,16,0.60
2012,04,07,03,17,0.60
2012,04,07,03,18,0.60
2012,04,07,03,19,0.60
2012,04,07,03,20,0.60
2012,04,07,03,21,0.60
2012,04,07,03,22,0.60
2012,04,07,03,23,0.60
2012,04,07,03,24,0.60
2012,04,07,03,25,0.60
2012,04,07,03,26,0.60
2012,04,07,03,27,0.60
2012,04,07,03,28,0.60
2012,04,07,03,29,0.60
2012,04,07,03,30,0.60
2012,04,07,03,31,0.50
2012,04,07,03,32,0.50
2012,04,07,03,33,0.50
2012,04,07,03,34,0.40
2012,04,07,03,35,0.40
2012,04,07,03,36,0.40
2012,04,07,03,37,0.40
2012,04,07,03,38,0.40
2012,04,07,03,39,0.40
2012,04,07,03,40,0.40
2012,04,07,03,41,0.40
2012,04,07,03,42,0.40
2012,04,07,03,43,0.50
2012,04,07,03,44,0.50
2012,04,07,03,45,0.50
2012,04,07,03,46,0.60
2012,04,07,03,47,0.60
2012,04,07,03,48,0.60
2012,04,07,03,49,0.60
2012,04,07,03,50,0.60
2012,04,07,03,51,0.60
2012,04,07,03,52,0.60
2012,04,07,03,53,0.70
2012,04,07,03,54,0.70
2012,04,07,03,55,0.80
2012,04,07,03,56,0.80
2012,04,07,03,57,0.80
2012,04,07,03,58,0.80
2012,04,07,03,59,0.80
2012,04,07,04,00,0.80
2012,04,07,04,01,0.80
2012,04,07,04,02,0.80
2012,04,07,04,03,0.80
2012,04,07,04,04,0.70
2012,04,07,04,05,0.70
2012,04,07,04,06,0.60
2012,04,07,04,07,0.60
2012,04,07,04,08,0.60
2012,04,07,04,09,0.60
2012,04,07,04,10,0.60
2012,04,07,04,11,0.60
2012,04,07,04,12,0.50
2012,04,07,04,13,0.50
2012,04,07,04,14,0.50
2012,04,07,04,15,0.50
2012,04,07,04,16,0.50
2012,04,07,04,17,0.50
2012,04,07,04,18,0.40
2012,04,07,04,19,0.40
2012,04,07,04,20,0.40
2012,04,07,04,21,0.40
2012,04,07,04,22,0.40
2012,04,07,04,23,0.40
2012,04,07,04,24,0.40
2012,04,07,04,25,0.40
2012,04,07,04,26,0.40
2012,04,07,04,27,0.40
2012,04,07,04,28,0.40
2012,04,07,04,29,0.40
2012,04,07,04,30,0.40
2012,04,07,04,31,0.40
2012,04,07,04,32,0.40
2012,04,07,04,33,0.40
2012,04,07,04,34,0.40
2012,04,07,04,35,0.40
2012,04,07,04,36,0.40
2012,04,07,04,37,0.40
2012,04,07,04,38,0.40
2012,04,07,04,39,0.40
2012,04,07,04,40,0.40
2012,04,07,04,41,0.40
2012,04,07,04,42,0.50
2012,04,07,04,43,0.50
2012,04,07,04,44,0.50
2012,04,07,04,45,0.50
2012,04,07,04,46,0.50
2012,04,07,04,47,0.50
2012,04,07,04,48,0.40
2012,04,07,04,49,0.40
2012,04,07,04,50,0.40
2012,04,07,04,51,0.40
2012,04,07,04,52,0.40
2012,04,07,04,53,0.40
2012,04,07,04,54,0.40
2012,04,07,04,55,0.40
2012,04,07,04,56,0.40
2012,04,07,04,57,0.40
2012,04,07,04,58,0.40
2012,04,07,04,59,0.40
2012,04,07,05,00,0.40
2012,04,07,05,01,0.40
2012,04,07,05,02,0.40
2012,04,07,05,03,0.40
2012,04,07,05,04,0.40
2012,04,07,05,05,0.40
2012,04,07,05,06,0.40
2012,04,07,05,07,0.40
2012,04,07,05,08,0.40
2012,04,07,05,09,0.40
2012,04,07,05,10,0.40
2012,04,07,05,11,0.40
2012,04,07,05,12,0.40
2012,04,07,05,13,0.40
2012,04,07,05,14,0.40
2012,04,07,05,15,0.40
2012,04,07,05,16,0.40
2012,04,07,05,17,0.40
2012,04,07,05,18,0.40
2012,04,07,05,19,0.30
2012,04,07,05,20,0.30
2012,04,07,05,21,0.40
2012,04,07,05,22,0.40
2012,04,07,05,23,0.40
2012,04,07,05,24,0.40
2012,04,07,05,25,0.40
2012,04,07,05,26,0.40
2012,04,07,05,27,0.40
2012,04,07,05,28,0.40
2012,04,07,05,29,0.40
2012,04,07,05,30,0.30
2012,04,07,05,31,0.30
2012,04,07,05,32,0.30
2012,04,07,05,33,0.30
2012,04,07,05,34,0.30
2012,04,07,05,35,0.30
2012,04,07,05,36,0.30
2012,04,07,05,37,0.40
2012,04,07,05,38,0.40
2012,04,07,05,39,0.40
2012,04,07,05,40,0.40
2012,04,07,05,41,0.40
2012,04,07,05,42,0.40
2012,04,07,05,43,0.30
2012,04,07,05,44,0.30
2012,04,07,05,45,0.30
2012,04,07,05,46,0.20
2012,04,07,05,47,0.20
2012,04,07,05,48,0.30
2012,04,07,05,49,0.30
2012,04,07,05,50,0.30
2012,04,07,05,51,0.40
2012,04,07,05,52,0.40
2012,04,07,05,53,0.40
2012,04,07,05,54,0.40
2012,04,07,05,55,0.40
2012,04,07,05,56,0.40
2012,04,07,05,57,0.30
2012,04,07,05,58,0.30
2012,04,07,05,59,0.30
2012,04,07,06,00,0.30
2012,04,07,06,01,0.30
2012,04,07,06,02,0.30
2012,04,07,06,03,0.20
2012,04,07,06,04,0.20
2012,04,07,06,05,0.20
2012,04,07,06,06,0.10
2012,04,07,06,07,0.10
2012,04,07,06,08,0.20
2012,04,07,06,09,0.20
2012,04,07,06,10,0.20
2012,04,07,06,11,0.20
2012,04,07,06,12,0.20
2012,04,07,06,13,0.20
2012,04,07,06,14,0.20
2012,04,07,06,15,0.30
2012,04,07,06,16,0.30
2012,04,07,06,17,0.30
2012,04,07,06,18,0.30
2012,04,07,06,19,0.30
2012,04,07,06,20,0.30
2012,04,07,06,21,0.30
2012,04,07,06,22,0.30
2012,04,07,06,23,0.30
2012,04,07,06,24,0.30
2012,04,07,06,25,0.30
2012,04,07,06,26,0.30
2012,04,07,06,27,0.30
2012,04,07,06,28,0.30
2012,04,07,06,29,0.30
2012,04,07,06,30,0.40
2012,04,07,06,31,0.40
2012,04,07,06,32,0.40
2012,04,07,06,33,0.40
2012,04,07,06,34,0.40
2012,04,07,06,35,0.40
2012,04,07,06,36,0.40
2012,04,07,06,37,0.40
2012,04,07,06,38,0.40
2012,04,07,06,39,0.40
2012,04,07,06,40,0.40
2012,04,07,06,41,0.40
2012,04,07,06,42,0.30
2012,04,07,06,43,0.30
2012,04,07,06,44,0.20
2012,04,07,06,45,0.20
2012,04,07,06,46,0.20
2012,04,07,06,47,0.20
2012,04,07,06,48,0.20
2012,04,07,06,49,0.10
2012,04,07,06,50,0.10
2012,04,07,06,51,0.10
2012,04,07,06,52,0.10
2012,04,07,06,53,0.10
2012,04,07,06,54,0.10
2012,04,07,06,55,0.10
2012,04,07,06,56,0.10
2012,04,07,06,57,0.10
2012,04,07,06,58,0.10
2012,04,07,06,59,0.10
2012,04,07,07,00,0.10
2012,04,07,07,01,0.10
2012,04,07,07,02,0.10
2012,04,07,07,03,0.10
2012,04,07,07,04,0.10
2012,04,07,07,05,0.10
2012,04,07,07,06,0.10
2012,04,07,07,07,0.10
2012,04,07,07,08,0.10
2012,04,07,07,09,0.20
2012,04,07,07,10,0.20
2012,04,07,07,11,0.30
2012,04,07,07,12,0.30
2012,04,07,07,13,0.40
2012,04,07,07,14,0.40
2012,04,07,07,15,0.40
2012,04,07,07,16,0.40
2012,04,07,07,17,0.50
2012,04,07,07,18,0.50
2012,04,07,07,19,0.50
2012,04,07,07,20,0.60
2012,04,07,07,21,0.60
2012,04,07,07,22,0.60
2012,04,07,07,23,0.60
2012,04,07,07,24,0.70
2012,04,07,07,25,0.70
2012,04,07,07,26,0.80
2012,04,07,07,27,0.80
2012,04,07,07,28,0.90
2012,04,07,07,29,0.90
2012,04,07,07,30,0.90
2012,04,07,07,31,0.90
2012,04,07,07,32,0.90
2012,04,07,07,33,1.00
2012,04,07,07,34,1.00
2012,04,07,07,35,1.10
2012,04,07,07,36,1.10
2012,04,07,07,37,1.20
2012,04,07,07,38,1.30
2012,04,07,07,39,1.30
2012,04,07,07,40,1.40
2012,04,07,07,41,1.40
2012,04,07,07,42,1.50
2012,04,07,07,43,1.60
2012,04,07,07,44,1.60
2012,04,07,07,45,1.70
2012,04,07,07,46,1.80
2012,04,07,07,47,1.80
2012,04,07,07,48,1.90
2012,04,07,07,49,1.90
2012,04,07,07,50,2.00
2012,04,07,07,51,2.10
2012,04,07,07,52,2.20
2012,04,07,07,53,2.20
2012,04,07,07,54,2.30
2012,04,07,07,55,2.30
2012,04,07,07,56,2.40
2012,04,07,07,57,2.50
2012,04,07,07,58,2.50
2012,04,07,07,59,2.60
2012,04,07,08,00,2.70
2012,04,07,08,01,2.70
2012,04,07,08,02,2.70
2012,04,07,08,03,2.70
2012,04,07,08,04,2.70
2012,04,07,08,05,2.70
2012,04,07,08,06,2.70
2012,04,07,08,07,2.70
2012,04,07,08,08,2.80
2012,04,07,08,09,2.90
2012,04,07,08,10,2.90
2012,04,07,08,11,3.00
2012,04,07,08,12,3.10
2012,04,07,08,13,3.10
2012,04,07,08,14,3.10
2012,04,07,08,15,3.10
2012,04,07,08,16,3.10
2012,04,07,08,17,3.10
2012,04,07,08,18,3.20
2012,04,07,08,19,3.20
2012,04,07,08,20,3.30
2012,04,07,08,21,3.30
2012,04,07,08,22,3.30
2012,04,07,08,23,3.30
2012,04,07,08,24,3.40
2012,04,07,08,25,3.50
2012,04,07,08,26,3.60
2012,04,07,08,27,3.70
2012,04,07,08,28,3.90
2012,04,07,08,29,4.00
2012,04,07,08,30,4.20
2012,04,07,08,31,4.30
2012,04,07,08,32,4.40
2012,04,07,08,33,4.50
2012,04,07,08,34,4.60
2012,04,07,08,35,4.70
2012,04,07,08,36,4.70
2012,04,07,08,37,4.70
2012,04,07,08,38,4.70
2012,04,07,08,39,4.80
2012,04,07,08,40,4.90
2012,04,07,08,41,4.90
2012,04,07,08,42,4.90
2012,04,07,08,43,5.00
2012,04,07,08,44,5.10
2012,04,07,08,45,5.10
2012,04,07,08,46,5.10
2012,04,07,08,47,5.10
2012,04,07,08,48,5.10
2012,04,07,08,49,5.20
2012,04,07,08,50,5.20
2012,04,07,08,51,5.30
2012,04,07,08,52,5.30
2012,04,07,08,53,5.30
2012,04,07,08,54,5.40
2012,04,07,08,55,5.50
2012,04,07,08,56,5.50
2012,04,07,08,57,5.50
2012,04,07,08,58,5.60
2012,04,07,08,59,5.70
2012,04,07,09,00,5.70
2012,04,07,09,01,5.70
2012,04,07,09,02,5.70
2012,04,07,09,03,5.80
2012,04,07,09,04,5.80
2012,04,07,09,05,5.90
2012,04,07,09,06,5.90
2012,04,07,09,07,6.00
2012,04,07,09,08,6.00
2012,04,07,09,09,6.10
2012,04,07,09,10,6.10
2012,04,07,09,11,6.10
2012,04,07,09,12,6.00
2012,04,07,09,13,6.00
2012,04,07,09,14,6.00
2012,04,07,09,15,6.10
2012,04,07,09,16,6.20
2012,04,07,09,17,6.20
2012,04,07,09,18,6.20
2012,04,07,09,19,6.20
2012,04,07,09,20,6.30
2012,04,07,09,21,6.40
2012,04,07,09,22,6.50
2012,04,07,09,23,6.60
2012,04,07,09,24,6.60
2012,04,07,09,25,6.60
2012,04,07,09,26,6.60
2012,04,07,09,27,6.60
2012,04,07,09,28,6.60
2012,04,07,09,29,6.70
2012,04,07,09,30,6.80
2012,04,07,09,31,7.00
2012,04,07,09,32,7.00
2012,04,07,09,33,7.20
2012,04,07,09,34,7.30
2012,04,07,09,35,7.40
2012,04,07,09,36,7.50
2012,04,07,09,37,7.70
2012,04,07,09,38,7.80
2012,04,07,09,39,7.80
2012,04,07,09,40,7.80
2012,04,07,09,41,7.90
2012,04,07,09,42,7.90
2012,04,07,09,43,7.90
2012,04,07,09,44,7.90
2012,04,07,09,45,8.00
2012,04,07,09,46,8.10
2012,04,07,09,47,8.30
2012,04,07,09,48,8.40
2012,04,07,09,49,8.50
2012,04,07,09,50,8.70
2012,04,07,09,51,8.70
2012,04,07,09,52,8.60
2012,04,07,09,53,8.60
2012,04,07,09,54,8.50
2012,04,07,09,55,8.30
2012,04,07,09,56,8.40
2012,04,07,09,57,8.40
2012,04,07,09,58,8.30
2012,04,07,09,59,8.30
2012,04,07,10,00,8.40
2012,04,07,10,01,8.40
2012,04,07,10,02,8.50
2012,04,07,10,03,8.50
2012,04,07,10,04,8.50
2012,04,07,10,05,8.40
2012,04,07,10,06,8.40
2012,04,07,10,07,8.30
2012,04,07,10,08,8.30
2012,04,07,10,09,8.40
2012,04,07,10,10,8.40
2012,04,07,10,11,8.40
2012,04,07,10,12,8.50
2012,04,07,10,13,8.50
2012,04,07,10,14,8.40
2012,04,07,10,15,8.40
2012,04,07,10,16,8.30
2012,04,07,10,17,8.20
2012,04,07,10,18,8.20
2012,04,07,10,19,8.30
2012,04,07,10,20,8.30
2012,04,07,10,21,8.30
2012,04,07,10,22,8.30
2012,04,07,10,23,8.30
2012,04,07,10,24,8.30
2012,04,07,10,25,8.30
2012,04,07,10,26,8.30
2012,04,07,10,27,8.40
2012,04,07,10,28,8.50
2012,04,07,10,29,8.50
2012,04,07,10,30,8.50
2012,04,07,10,31,8.40
2012,04,07,10,32,8.40
2012,04,07,10,33,8.40
2012,04,07,10,34,8.30
2012,04,07,10,35,8.30
2012,04,07,10,36,8.30
2012,04,07,10,37,8.30
2012,04,07,10,38,8.30
2012,04,07,10,39,8.30
2012,04,07,10,40,8.30
2012,04,07,10,41,8.40
2012,04,07,10,42,8.50
2012,04,07,10,43,8.50
2012,04,07,10,44,8.60
2012,04,07,10,45,8.60
2012,04,07,10,46,8.60
2012,04,07,10,47,8.70
2012,04,07,10,48,8.70
2012,04,07,10,49,8.70
2012,04,07,10,50,8.70
2012,04,07,10,51,8.70
2012,04,07,10,52,8.70
2012,04,07,10,53,8.70
2012,04,07,10,54,8.70
2012,04,07,10,55,8.70
2012,04,07,10,56,8.80
2012,04,07,10,57,8.90
2012,04,07,10,58,8.90
2012,04,07,10,59,8.90
2012,04,07,11,00,8.90
2012,04,07,11,01,8.80
2012,04,07,11,02,8.70
2012,04,07,11,03,8.70
2012,04,07,11,04,8.70
2012,04,07,11,05,8.70
2012,04,07,11,06,8.70
2012,04,07,11,07,8.70
2012,04,07,11,08,8.70
2012,04,07,11,09,8.70
2012,04,07,11,10,8.70
2012,04,07,11,11,8.70
2012,04,07,11,12,8.70
2012,04,07,11,13,8.70
2012,04,07,11,14,8.80
2012,04,07,11,15,8.80
2012,04,07,11,16,8.90
2012,04,07,11,17,8.90
2012,04,07,11,18,8.90
2012,04,07,11,19,9.00
2012,04,07,11,20,9.00
2012,04,07,11,21,9.00
2012,04,07,11,22,9.10
2012,04,07,11,23,9.10
2012,04,07,11,24,9.10
2012,04,07,11,25,9.10
2012,04,07,11,26,9.10
2012,04,07,11,27,9.10
2012,04,07,11,28,9.20
2012,04,07,11,29,9.20
2012,04,07,11,30,9.30
2012,04,07,11,31,9.30
2012,04,07,11,32,9.40
2012,04,07,11,33,9.50
2012,04,07,11,34,9.70
2012,04,07,11,35,9.70
2012,04,07,11,36,9.80
2012,04,07,11,37,9.90
2012,04,07,11,38,10.00
2012,04,07,11,39,10.10
2012,04,07,11,40,10.10
2012,04,07,11,41,10.10
2012,04,07,11,42,10.10
2012,04,07,11,43,10.10
2012,04,07,11,44,10.20
2012,04,07,11,45,10.30
2012,04,07,11,46,10.40
2012,04,07,11,47,10.50
2012,04,07,11,48,10.60
2012,04,07,11,49,10.50
2012,04,07,11,50,10.40
2012,04,07,11,51,10.30
2012,04,07,11,52,10.20
2012,04,07,11,53,10.20
2012,04,07,11,54,10.30
2012,04,07,11,55,10.30
2012,04,07,11,56,10.40
2012,04,07,11,57,10.40
2012,04,07,11,58,10.40
2012,04,07,11,59,10.30
2012,04,07,12,00,10.20
2012,04,07,12,01,10.30
2012,04,07,12,02,10.30
2012,04,07,12,03,10.40
2012,04,07,12,04,10.40
2012,04,07,12,05,10.40
2012,04,07,12,06,10.40
2012,04,07,12,07,10.40
2012,04,07,12,08,10.40
2012,04,07,12,09,10.40
2012,04,07,12,10,10.40
2012,04,07,12,11,10.40
2012,04,07,12,12,10.40
2012,04,07,12,13,10.40
2012,04,07,12,14,10.30
2012,04,07,12,15,10.00
2012,04,07,12,16,9.90
2012,04,07,12,17,9.80
2012,04,07,12,18,9.80
2012,04,07,12,19,9.80
2012,04,07,12,20,9.80
2012,04,07,12,21,9.90
2012,04,07,12,22,9.90
2012,04,07,12,23,9.90
2012,04,07,12,24,10.10
2012,04,07,12,25,10.10
2012,04,07,12,26,10.20
2012,04,07,12,27,10.30
2012,04,07,12,28,10.20
2012,04,07,12,29,10.20
2012,04,07,12,30,10.30
2012,04,07,12,31,10.40
2012,04,07,12,32,10.40
2012,04,07,12,33,10.40
2012,04,07,12,34,10.40
2012,04,07,12,35,10.30
2012,04,07,12,36,10.30
2012,04,07,12,37,10.40
2012,04,07,12,38,10.40
2012,04,07,12,39,10.40
2012,04,07,12,40,10.60
2012,04,07,12,41,10.70
2012,04,07,12,42,10.80
2012,04,07,12,43,10.90
2012,04,07,12,44,10.80
2012,04,07,12,45,10.80
2012,04,07,12,46,10.80
2012,04,07,12,47,10.80
2012,04,07,12,48,10.70
2012,04,07,12,49,10.60
2012,04,07,12,50,10.60
2012,04,07,12,51,10.60
2012,04,07,12,52,10.60
2012,04,07,12,53,10.60
2012,04,07,12,54,10.70
2012,04,07,12,55,10.70
2012,04,07,12,56,10.70
2012,04,07,12,57,10.60
2012,04,07,12,58,10.60
2012,04,07,12,59,10.40
2012,04,07,13,00,10.40
2012,04,07,13,01,10.40
2012,04,07,13,02,10.50
2012,04,07,13,03,10.60
2012,04,07,13,04,10.60
2012,04,07,13,05,10.60
2012,04,07,13,06,10.60
2012,04,07,13,07,10.60
2012,04,07,13,08,10.60
2012,04,07,13,09,10.70
2012,04,07,13,10,10.70
2012,04,07,13,11,10.60
2012,04,07,13,12,10.60
2012,04,07,13,13,10.60
2012,04,07,13,14,10.60
2012,04,07,13,15,10.70
2012,04,07,13,16,10.70
2012,04,07,13,17,10.70
2012,04,07,13,18,10.80
2012,04,07,13,19,10.80
2012,04,07,13,20,10.80
2012,04,07,13,21,10.80
2012,04,07,13,22,10.70
2012,04,07,13,23,10.60
2012,04,07,13,24,10.60
2012,04,07,13,25,10.60
2012,04,07,13,26,10.70
2012,04,07,13,27,10.80
2012,04,07,13,28,10.90
2012,04,07,13,29,10.90
2012,04,07,13,30,10.90
2012,04,07,13,31,10.90
2012,04,07,13,32,10.90
2012,04,07,13,33,10.90
2012,04,07,13,34,10.90
2012,04,07,13,35,10.90
2012,04,07,13,36,11.00
2012,04,07,13,37,11.10
2012,04,07,13,38,11.00
2012,04,07,13,39,11.00
2012,04,07,13,40,11.10
2012,04,07,13,41,11.10
2012,04,07,13,42,11.10
2012,04,07,13,43,11.10
2012,04,07,13,44,11.10
2012,04,07,13,45,11.00
2012,04,07,13,46,10.90
2012,04,07,13,47,10.90
2012,04,07,13,48,10.90
2012,04,07,13,49,10.90
2012,04,07,13,50,10.90
2012,04,07,13,51,10.90
2012,04,07,13,52,10.90
2012,04,07,13,53,11.00
2012,04,07,13,54,11.10
2012,04,07,13,55,11.10
2012,04,07,13,56,11.10
2012,04,07,13,57,11.10
2012,04,07,13,58,11.10
2012,04,07,13,59,11.10
2012,04,07,14,00,11.10
2012,04,07,14,01,11.00
2012,04,07,14,02,10.90
2012,04,07,14,03,11.00
2012,04,07,14,04,11.10
2012,04,07,14,05,11.10
2012,04,07,14,06,11.10
2012,04,07,14,07,11.20
2012,04,07,14,08,11.20
2012,04,07,14,09,11.30
2012,04,07,14,10,11.40
2012,04,07,14,11,11.60
2012,04,07,14,12,11.70
2012,04,07,14,13,11.80
2012,04,07,14,14,11.70
2012,04,07,14,15,11.60
2012,04,07,14,16,11.60
2012,04,07,14,17,11.40
2012,04,07,14,18,11.40
2012,04,07,14,19,11.40
2012,04,07,14,20,11.50
2012,04,07,14,21,11.60
2012,04,07,14,22,11.60
2012,04,07,14,23,11.60
2012,04,07,14,24,11.70
2012,04,07,14,25,11.70
2012,04,07,14,26,11.80
2012,04,07,14,27,11.80
2012,04,07,14,28,11.80
2012,04,07,14,29,11.70
2012,04,07,14,30,11.60
2012,04,07,14,31,11.50
2012,04,07,14,32,11.40
2012,04,07,14,33,11.30
2012,04,07,14,34,11.30
2012,04,07,14,35,11.40
2012,04,07,14,36,11.50
2012,04,07,14,37,11.70
2012,04,07,14,38,11.70
2012,04,07,14,39,11.80
2012,04,07,14,40,11.70
2012,04,07,14,41,11.60
2012,04,07,14,42,11.60
2012,04,07,14,43,11.60
2012,04,07,14,44,11.60
2012,04,07,14,45,11.60
2012,04,07,14,46,11.70
2012,04,07,14,47,11.80
2012,04,07,14,48,11.70
2012,04,07,14,49,11.70
2012,04,07,14,50,11.70
2012,04,07,14,51,11.70
2012,04,07,14,52,11.70
2012,04,07,14,53,11.70
2012,04,07,14,54,11.80
2012,04,07,14,55,11.80
2012,04,07,14,56,11.80
2012,04,07,14,57,11.80
2012,04,07,14,58,11.80
2012,04,07,14,59,11.80
2012,04,07,15,00,11.80
2012,04,07,15,01,11.80
2012,04,07,15,02,11.80
2012,04,07,15,03,11.80
2012,04,07,15,04,11.80
2012,04,07,15,05,11.80
